Date String (YYYY-MM-DD hh:mm:ss) UTC,Instrument flags,absolute air pressure of the measurement (hPa),sample flow rate (lpm),inlet stack bypass flow (lpm),air temperature of the measurement (°C),ambient temperature measured by the external sensor (°C),aerosol sample conditioner tube jacket temperature (°C),OPC LED temperature (°C),internal box temperature (°C),relative humidity of the measurement (%),span deviation,mass concentration of particles derived from Lorenz-Mie calculation of OPC scattering (μg/m³),mass concentration of particles derived from Lorenz-Mie calculation of OPC scattering (μg/m³),mass concentration of particles derived from Lorenz-Mie calculation of OPC scattering (μg/m³)
DateTimeUTC,F1_M11,P_M11,Q1_M11,Q2_M11,T1_M11,T2_M11,T3_M11,T4_M11,T5_M11,U1_M11,ZSPAN_M11,X0_M11,X2_M11,X1_M11
2023-10-11 03:00:00,SystemResetWarning,0820.0,4.99,000.00,028.2,025.8,000.0,036.8,029.9,11.7,0000.0,0011.20,0006.32,0005.97
2023-10-11 03:01:00,SystemResetWarning,0820.1,5.00,000.00,028.2,026.1,000.0,036.8,029.9,11.7,0000.0,0011.30,0006.17,0005.82
2023-10-11 03:02:00,SystemResetWarning,0820.1,5.00,000.00,028.2,026.3,000.0,036.8,030.0,11.8,0000.0,0011.16,0006.04,0005.69
2023-10-11 03:03:00,SystemResetWarning,0820.1,5.00,000.00,028.2,026.5,000.0,036.8,030.0,11.8,0000.0,0011.02,0005.94,0005.58
2023-10-11 03:04:00,SystemResetWarning,0820.1,5.01,000.00,028.2,026.7,000.0,036.8,030.0,11.7,0000.0,0010.93,0005.84,0005.49
2023-10-11 03:05:00,SystemResetWarning,0820.1,5.00,000.00,028.3,026.8,000.0,036.8,030.1,11.7,0000.0,0010.95,0005.80,0005.43
2023-10-11 03:06:00,SystemResetWarning,0820.1,5.00,000.00,028.3,026.9,000.0,036.8,030.1,11.7,0000.0,0010.87,0005.77,0005.40
2023-10-11 03:07:00,SystemResetWarning,0820.1,4.99,000.00,028.3,027.0,000.0,036.8,030.1,11.7,0000.0,0010.69,0005.78,0005.42
2023-10-11 03:08:00,SystemResetWarning,0820.1,4.99,000.00,028.4,027.1,000.0,036.8,030.2,11.8,0000.0,0010.52,0005.81,0005.45
2023-10-11 03:09:00,SystemResetWarning,0820.1,5.00,000.00,028.4,027.2,000.0,036.8,030.2,11.8,0000.0,0009.74,0005.82,0005.49
2023-10-11 03:10:00,SystemResetWarning,0820.2,5.00,000.00,028.4,027.3,000.0,036.8,030.2,11.8,0000.0,0008.89,0005.82,0005.53
2023-10-11 03:11:00,SystemResetWarning,0820.2,5.01,000.00,028.5,027.3,000.0,036.9,030.3,11.7,0000.0,0008.89,0005.78,0005.52
2023-10-11 03:12:00,SystemResetWarning,0820.1,5.00,000.00,028.5,027.4,000.0,036.9,030.3,11.8,0000.0,0008.92,0005.73,0005.48
2023-10-11 03:13:00,SystemResetWarning,0820.2,5.00,000.00,028.5,027.4,000.0,036.9,030.3,11.7,0000.0,0008.88,0005.70,0005.44
2023-10-11 03:14:00,SystemResetWarning,0820.1,4.98,000.00,028.5,026.1,000.0,036.9,030.3,11.8,0000.0,0009.57,0005.71,0005.42
2023-10-11 03:15:00,SystemResetWarning,0820.0,5.02,000.00,028.5,024.7,000.0,036.8,030.1,11.8,0000.0,0009.84,0005.71,0005.40
2023-10-11 03:16:00,SystemResetWarning,0820.0,5.00,000.00,028.4,024.6,000.0,036.8,030.0,11.9,0000.0,0009.81,0005.66,0005.35
2023-10-11 03:17:00,SystemResetWarning,0820.0,4.99,000.00,028.3,024.8,000.0,036.8,029.8,11.9,0000.0,0009.81,0005.61,0005.31
2023-10-11 03:18:00,SystemResetWarning,0819.9,5.00,000.00,028.2,025.2,000.0,036.8,029.8,12.0,0000.0,0009.77,0005.58,0005.26
2023-10-11 03:19:00,SystemResetWarning,0820.0,5.00,000.00,028.2,025.6,000.0,036.8,029.9,12.0,0000.0,0009.67,0005.52,0005.20
2023-10-11 03:20:00,SystemResetWarning,0819.9,4.99,000.00,028.2,025.9,000.0,036.8,029.9,12.0,0000.0,0010.40,0005.44,0005.11
2023-10-11 03:21:00,SystemResetWarning,0820.1,4.99,000.00,028.2,026.1,000.0,036.8,029.9,12.0,0000.0,0011.12,0005.40,0005.03
2023-10-11 03:22:00,SystemResetWarning,0820.0,4.99,000.00,028.2,026.4,000.0,036.8,030.0,12.1,0000.0,0010.96,0005.35,0004.97
2023-10-11 03:23:00,SystemResetWarning,0819.9,5.00,000.00,028.3,026.6,000.0,036.8,030.0,12.1,0000.0,0011.01,0005.32,0004.93
2023-10-11 03:24:00,SystemResetWarning,0819.9,5.01,000.00,028.3,026.7,000.0,036.8,030.1,12.1,0000.0,0011.09,0005.31,0004.92
2023-10-11 03:25:00,SystemResetWarning,0819.8,5.00,000.00,028.3,026.9,000.0,036.8,030.1,12.1,0000.0,0010.77,0005.28,0004.91
2023-10-11 03:26:00,SystemResetWarning,0819.9,4.99,000.00,028.3,027.0,000.0,036.8,030.1,12.0,0000.0,0011.21,0005.26,0004.87
2023-10-11 03:27:00,SystemResetWarning,0819.9,4.99,000.00,028.4,027.0,000.0,036.8,030.2,12.0,0000.0,0012.18,0005.22,0004.83
2023-10-11 03:28:00,SystemResetWarning,0819.9,5.00,000.00,028.4,027.1,000.0,036.8,030.2,12.0,0000.0,0013.69,0005.26,0004.84
2023-10-11 03:29:00,SystemResetWarning,0819.9,5.01,000.00,028.4,027.2,000.0,036.9,030.2,12.0,0000.0,0013.83,0005.29,0004.86
2023-10-11 03:30:00,SystemResetWarning,0820.0,5.01,000.00,028.4,027.3,000.0,036.9,030.3,12.0,0000.0,0013.88,0005.31,0004.87
2023-10-11 03:31:00,SystemResetWarning,0819.9,5.00,000.00,028.5,027.3,000.0,036.9,030.3,12.0,0000.0,0013.41,0005.37,0004.95
2023-10-11 03:32:00,SystemResetWarning,0819.9,4.99,000.00,028.5,027.3,000.0,036.9,030.3,12.0,0000.0,0012.53,0005.51,0005.08
2023-10-11 03:33:00,SystemResetWarning,0819.8,5.00,000.00,028.5,027.4,000.0,036.9,030.3,11.9,0000.0,0013.10,0005.60,0005.17
2023-10-11 03:34:00,SystemResetWarning,0819.8,5.01,000.00,028.6,027.4,000.0,037.0,030.3,11.9,0000.0,0013.18,0005.68,0005.23
2023-10-11 03:35:00,SystemResetWarning,0820.0,5.00,000.00,028.6,026.8,000.0,037.0,030.3,11.9,0000.0,0013.09,0005.75,0005.30
2023-10-11 03:36:00,SystemResetWarning,0819.8,5.00,000.00,028.5,025.0,000.0,036.9,030.1,11.9,0000.0,0013.18,0005.79,0005.34
2023-10-11 03:37:00,SystemResetWarning,0819.8,5.01,000.00,028.4,024.6,000.0,036.8,030.0,12.0,0000.0,0012.46,0005.84,0005.40
2023-10-11 03:38:00,SystemResetWarning,0819.8,5.01,000.00,028.3,024.7,000.0,036.8,029.8,12.0,0000.0,0011.44,0005.86,0005.46
2023-10-11 03:39:00,SystemResetWarning,0819.8,5.00,000.00,028.3,025.1,000.0,036.8,029.8,12.1,0000.0,0009.72,0005.86,0005.50
2023-10-11 03:40:00,SystemResetWarning,0819.7,4.99,000.00,028.2,025.4,000.0,036.8,029.9,12.1,0002.0,0009.58,0005.88,0005.52
2023-10-11 03:41:00,SystemResetWarning,0820.0,4.99,000.00,028.2,025.7,000.0,036.8,029.9,12.1,0003.2,0009.58,0005.92,0005.57
2023-10-11 03:42:00,SystemResetWarning,0819.7,5.00,000.00,028.2,026.0,000.0,036.8,030.0,12.1,0001.5,0009.69,0005.97,0005.60
2023-10-11 03:43:00,SystemResetWarning,0819.8,5.01,000.00,028.2,026.2,000.0,036.8,030.0,12.1,0003.2,0009.63,0005.93,0005.56
2023-10-11 03:44:00,SystemResetWarning,0819.8,5.01,000.00,028.2,026.4,000.0,036.8,030.0,12.0,0003.0,0009.27,0005.88,0005.50
2023-10-11 03:45:00,SystemResetWarning,0819.9,5.00,000.00,028.3,026.6,000.0,036.8,030.0,12.0,0002.7,0008.79,0005.81,0005.45
2023-10-11 03:46:00,SystemResetWarning,0819.9,5.00,000.00,028.3,026.7,000.0,036.8,030.1,12.0,0002.5,0008.50,0005.76,0005.40
2023-10-11 03:47:00,SystemResetWarning,0820.0,5.00,000.00,028.3,026.8,000.0,036.8,030.1,12.0,0002.6,0008.35,0005.70,0005.35
2023-10-11 03:48:00,SystemResetWarning,0820.0,4.99,000.00,028.3,026.9,000.0,036.8,030.1,12.0,0002.7,0008.33,0005.66,0005.30
2023-10-11 03:49:00,SystemResetWarning,0820.2,5.00,000.00,028.4,027.0,000.0,036.9,030.1,11.9,0002.3,0008.32,0005.62,0005.26
2023-10-11 03:50:00,SystemResetWarning,0820.2,4.99,000.00,028.4,027.1,000.0,036.9,030.2,11.9,0002.4,0008.73,0005.61,0005.23
2023-10-11 03:51:00,SystemResetWarning,0820.0,5.00,000.00,028.4,027.2,000.0,036.9,030.2,11.9,0002.2,0008.89,0005.56,0005.17
2023-10-11 03:52:00,SystemResetWarning,0820.2,5.00,000.00,028.5,027.2,000.0,036.9,030.2,11.9,0002.0,0008.84,0005.50,0005.09
2023-10-11 03:53:00,SystemResetWarning,0820.2,5.00,000.00,028.5,027.3,000.0,036.9,030.2,11.9,0002.3,0008.72,0005.38,0004.99
2023-10-11 03:54:00,SystemResetWarning,0820.2,5.00,000.00,028.5,027.3,000.0,036.9,030.2,11.9,0002.5,0008.65,0005.27,0004.89
2023-10-11 03:55:00,SystemResetWarning,0819.9,5.00,000.00,028.5,027.3,000.0,036.9,030.3,11.8,0001.9,0009.17,0005.19,0004.81
2023-10-11 03:56:00,SystemResetWarning,0819.7,5.01,000.00,028.6,027.4,000.0,037.0,030.3,11.7,0000.4,0009.21,0005.16,0004.74
2023-10-11 03:57:00,SystemResetWarning,0819.9,5.00,000.00,028.6,027.2,000.0,037.0,030.3,11.7,0000.0,0009.11,0005.09,0004.68
2023-10-11 03:58:00,SystemResetWarning,0819.9,4.97,000.00,028.6,025.5,000.0,036.9,030.2,11.7,0000.0,0009.01,0005.02,0004.61
2023-10-11 03:59:00,SystemResetWarning,0820.1,5.02,000.00,028.5,024.5,000.0,036.9,030.1,11.7,0000.0,0008.93,0004.94,0004.55
